Flag for Cuba Weather past 2 weeks in Holguín, Cuba

Now
93 °F

Passing clouds.


Feels Like: 99 °F
Forecast: 73 / 93 °F
Wind: 10 mph from East

Location: Holguin Civ / Mil

Current Time: Aug 4, 2015 at 3:06:23 PM

Latest Report: Aug 4, 2015 at 1:50 PM


Visibility: N/A

Pressure: 30.01 "Hg

Humidity: 47%

Dew point: 70 °F

Location of HolguínLocation

Historic Weather in Holguín — Graph

°F

Holguín temperature yesterday

Maximum temperature yesterday: 95 °F (at 3:50 PM)
Minimum temperature yesterday: 70 °F (at 5:51 AM)
Average temperature yesterday: 81 °F

Past Weeks' High & Low Weather Summary

 TemperatureHumidityPressure
High99 °F (Jul 23, 3:51 PM)94% (Jul 23, 3:50 AM)30.09 "Hg (Jul 23, 3:50 AM)
Low70 °F (Jul 23, 6:53 PM)13% (Aug 2, 12:50 PM)29.89 "Hg (Jul 26, 4:50 PM)
Average82 °F68%30.00 "Hg
* Reported Jul 20 1:50 PM — Aug 4 1:50 PM, Holguín, Weather by CustomWeather, © 2015

Note: Actual official high and low records may vary slightly from our data, if they occured in-between our weather recording intervals... More about our weather records

Advertising

Holguín weather history for previous 24 hours

 ConditionsComfort  
Time TempWeatherWind HumidityBarometerVisibility
1:50 PM
Tue, Aug 4
93 °FPassing clouds.10 mph47%30.01 "HgN/A
12:51 PM91 °FScattered clouds.13 mph52%30.01 "HgN/A
11:52 AM90 °FScattered clouds.13 mph55%30.04 "Hg6 mi
10:50 AM88 °FScattered clouds.14 mph59%30.04 "HgN/A
9:52 AM86 °FPassing clouds.8 mph62%30.04 "HgN/A
8:52 AM82 °FPassing clouds.3 mph74%30.04 "Hg6 mi
7:51 AM75 °FFog.3 mph89%30.01 "Hg4 mi
6:53 AM73 °FFog.3 mph89%30.01 "Hg6 mi
5:50 AM75 °FFog.3 mph89%30.01 "Hg4 mi
3:50 AM75 °FFog.5 mph89%30.01 "Hg4 mi
2:50 AM75 °FClear.5 mph89%30.01 "Hg5 mi
1:50 AM77 °FClear.3 mph83%30.01 "Hg5 mi
12:50 AM77 °FClear.6 mph89%30.01 "Hg5 mi
11:50 PM
Mon, Aug 3
79 °FClear.7 mph84%30.01 "Hg5 mi
10:50 PM79 °FPassing clouds.6 mph79%30.01 "Hg6 mi
9:50 PM79 °FPassing clouds.7 mph79%29.98 "Hg6 mi
8:50 PM81 °FPassing clouds.6 mph70%29.98 "Hg6 mi
7:50 PM82 °FScattered clouds.8 mph70%29.95 "Hg6 mi
6:50 PM82 °FThundershowers. Scattered clouds.8 mph70%N/A5 mi
5:50 PM86 °FThundershowers. Scattered clouds.13 mph59%N/A5 mi
4:51 PM88 °FScattered clouds.14 mph55%29.89 "HgN/A
3:50 PM95 °FScattered clouds.6 mph36%29.89 "HgN/A
Weather by CustomWeather, © 2015

See weather overviewHow to use our weather pages